Regional Weather Roundup
Issued by NWS San Angelo, TX

Current Version | Previous Version | Text Only | Print | Product List | Glossary On
Versions: 1 2 3 4 5 6 7 8 9 10 11 12 13 14 15 16 17 18 19 20 21 22 23 24 25 26 27 28 29 30 31 32 33 34 35 36 37 38 39 40 41 42 43 44 45 46 47 48 49 50
000
ASUS44 KSJT 250302
RWRSJT
WEST CENTRAL TEXAS REGIONAL WEATHER ROUNDUP
NATIONAL WEATHER SERVICE SAN ANGELO TX
900 PM CST WED DEC 24 2014

NOTE: "FAIR" INDICATES FEW OR NO CLOUDS BELOW 12,000 FEET WITH NO
SIGNIFICANT WEATHER AND/OR OBSTRUCTIONS TO VISIBILITY.

TXZ049-054-064>066-071>073-076>078-098-099-113-114-127-128-139-140-
154-155-168>170-250400
...LOCATIONS ACROSS WEST CENTRAL TEXAS...

CITY           SKY/WX    TMP DP  RH WIND       PRES   REMARKS
SAN ANGELO     CLEAR     35  27  72 S10       30.04F WCI  27
ABILENE        CLEAR     37  24  59 S7        30.02F WCI  32
DYESS AFB      CLEAR     36  24  63 SW9       30.01F WCI  29
JUNCTION       CLEAR     34  26  72 CALM      30.08F
SWEETWATER     NOT AVBL
BROWNWOOD      NOT AVBL
COLEMAN        NOT AVBL
SONORA         NOT AVBL
OZONA          NOT AVBL
BRADY          NOT AVBL
$$

TEXAS PANHANDLE/OKLAHOMA PANHANDLE

CITY           SKY/WX    TMP DP  RH WIND       PRES   REMARKS
AMARILLO       PTCLDY    33  15  47 SW10      29.81F WCI  25
BORGER         CLEAR     39  13  34 SW10G18   29.78F WCI  32
CANADIAN       NOT AVBL
DALHART        PTCLDY    25  15  66 SW8       29.76F WCI  16
DUMAS          NOT AVBL
GUYMON         NOT AVBL
HEREFORD       PTCLDY    36  19  50 SW12      29.84F WCI  28
PAMPA          NOT AVBL
PERRYTON       NOT AVBL
$$

SOUTHERN PANHANDLE/SOUTH PLAINS/ROLLING PLAINS

CITY           SKY/WX    TMP DP  RH WIND       PRES   REMARKS
LUBBOCK        CLEAR     39  22  50 SW13      29.91F WCI  31
SNYDER         NOT AVBL
CHILDRESS      CLEAR     39  15  37 S12       29.90F WCI  32
SEMINOLE       NOT AVBL
$$

PERMIAN BASIN

CITY           SKY/WX    TMP DP  RH WIND       PRES   REMARKS
MIDLAND        CLEAR     38  25  59 SW6       29.97F WCI  33
ODESSA         CLEAR     37  24  59 S7        29.98F WCI  32
WINK           CLEAR     41  22  46 SW10      29.96F WCI  35
$$

FAR WEST/SOUTHWEST MOUNTAINS/TRANS PECOS

CITY           SKY/WX    TMP DP  RH WIND       PRES   REMARKS
ALPINE         NOT AVBL
DRYDEN           N/A     39  21  48 VRB7      30.02F WCI  34
EL PASO        PTCLDY    41   9  26 S3        30.02F
FORT STOCKTON  CLEAR     39  25  57 SW12      30.01F WCI  32
GUADALUPE PASS NOT AVBL
MARFA          PTCLDY    27  14  59 CALM      30.07F
PECOS          NOT AVBL
$$

DALLAS/FORT WORTH METROPLEX

CITY           SKY/WX    TMP DP  RH WIND       PRES   REMARKS
DFW AIRPORT    CLEAR     41  28  60 SW7       30.04F WCI  36
FTW MEACHAM    CLEAR     42  29  59 S3        30.04F
DAL-EXECUTIVE  CLEAR     40  29  64 SW6       30.04F WCI  36
GRAND PRAIRIE  CLEAR     43  31  63 CALM      30.07S
ADDISON        CLEAR     45  28  53 SW3       30.06S
MESQUITE       NOT AVBL
LANCASTER      CLEAR     38  29  72 CALM      30.07S
$$

NORTH CENTRAL TEXAS

CITY           SKY/WX    TMP DP  RH WIND       PRES   REMARKS
SHRMAN/DENISON CLEAR     37  32  81 CALM      30.03F
GAINESVILLE    NOT AVBL
BRIDGEPORT     CLEAR     39  29  67 S6        30.04F WCI  35
DENTON         CLEAR     38  28  67 S3        30.03F
WAXAHACHIE     CLEAR     40  32  71 W3        30.07F
GRANBURY       NOT AVBL
$$

WESTERN NORTH TEXAS

CITY           SKY/WX    TMP DP  RH WIND       PRES   REMARKS
WICHITA FALLS  CLEAR     34  24  67 S10       29.96F WCI  26
VERNON         NOT AVBL
BRECKENRIDGE   NOT AVBL
COMANCHE       NOT AVBL
$$

CENTRAL AND SOUTH CENTRAL TEXAS

CITY           SKY/WX    TMP DP  RH WIND       PRES   REMARKS
AUSTIN/BERGSTM CLEAR     37  31  78 SW6       30.12S WCI  32
WACO           CLEAR     34  29  82 W7        30.08S WCI  28
HILLSBORO      NOT AVBL
TEMPLE         CLEAR     37  27  65 S7        30.08S WCI  32
KILLEEN-GRAY   CLEAR     45  26  47 W7        30.08F
FORT HOOD      CLEAR     44  27  52 SW3       30.07F
GEORGETOWN     CLEAR     39  28  65 W5        30.10R WCI  36
LAGO VISTA     NOT AVBL
SAN MARCOS     CLEAR     41  30  65 CALM      30.12S
NEW BRAUNFELS  CLEAR     41  30  65 NW8       30.11S WCI  36
RANDOLPH AFB   CLEAR     45  29  52 S3        30.12S
SAN ANTONIO    CLEAR     44  30  57 NW5       30.12S
STINSON        CLEAR     42  32  67 CALM      30.11S
PLEASANTON     NOT AVBL
LA GRANGE      NOT AVBL
GIDDINGS       NOT AVBL
$$

EAST TEXAS

CITY           SKY/WX    TMP DP  RH WIND       PRES   REMARKS
PARIS          CLEAR     39  30  70 CALM      30.04S
CLARKSVILLE    NOT AVBL
TYLER          CLEAR     44  32  62 SW3       30.06S
LONGVIEW       CLEAR     37  32  82 S3        30.07R
PALESTINE      CLEAR     36  34  94 CALM      30.10S
NACOGDOCHES      N/A    N/A N/A N/A MISG        N/A
$$

TEXAS HILL COUNTRY AND EDWARDS PLATEAU

CITY           SKY/WX    TMP DP  RH WIND       PRES   REMARKS
LLANO          NOT AVBL
HORSESHOE BAY  FAIR      37  28  70 S3        30.10F
KERRVILLE      NOT AVBL
FREDERICKSBRG  NOT AVBL
ROCKSPRINGS    NOT AVBL
HONDO          CLEAR     36  21  54 N5        30.14S WCI  32
UVALDE         NOT AVBL
DEL RIO        CLEAR     43  26  51 SE6       30.09R WCI  39
$$

SOUTHEAST TEXAS

CITY           SKY/WX    TMP DP  RH WIND       PRES   REMARKS
COLLEGE STN    CLEAR     40  34  79 SW5       30.11S WCI  37
CALDWELL       NOT AVBL
CROCKETT       NOT AVBL
BRENHAM        NOT AVBL
HUNTSVILLE     CLEAR     42  34  73 SW3       30.11R
CONROE         CLEAR     37  34  89 CALM      30.13R
HOUSTON BUSH   CLEAR     41  37  86 CALM      30.12R
HOUSTON HOBBY  CLEAR     43  37  79 CALM      30.13R
PERLAND        CLEAR     43  36  76 CALM      30.15R
WHARTON        NOT AVBL
$$

THE UPPER TEXAS COAST

CITY           SKY/WX    TMP DP  RH WIND       PRES   REMARKS
ORANGE         CLEAR     36  36 100 CALM      30.14R
PORT ARTHUR    CLEAR     41  37  86 SW5       30.12R WCI  38
GALVESTON      CLEAR     48  40  73 CALM      30.15R
ANGLETON       CLEAR     39  37  92 CALM      30.15R
BAY CITY         N/A     43  40  88 CALM      30.15R
$$

TEXAS COASTAL BEND, RIO GRANDE PLAINS DEEP SOUTH TEXAS

CITY           SKY/WX    TMP DP  RH WIND       PRES   REMARKS
VICTORIA       CLEAR     46  36  68 SW5       30.15R
BEEVILLE       FAIR      49  33  54 SW3       30.14S
ROCKPORT       CLEAR     44  35  70 SW6       30.16R
PORT ARANSAS   NOT AVBL
PORT LAVACA    CLEAR     46  40  78 SW6       30.16R
CORPUS CHRISTI CLEAR     44  31  60 CALM      30.16S
KINGSVILLE NAS CLEAR     46  36  68 SW7       30.18R
COTULLA        PTCLDY    42  26  53 CALM      30.14R
LAREDO         NOT AVBL
BROWNSVILLE    CLEAR     48  36  63 NE3       30.18S
PORT ISABEL    CLEAR     47  37  68 N8        30.17F
HEBBRONVILLE   NOT AVBL
MCALLEN        CLEAR     48  35  60 CALM      30.18F HAZE
WESLACO        NOT AVBL
FALFURRIAS     CLEAR     44  32  61 CALM      30.18R
EDINBURG       CLEAR     44  35  72 CALM      30.18S
$$


USA.gov is the U.S. government's official web portal to all federal, state and local government web resources and services.